Location: Astugue
(43.0916°N, 0.0705°E)
Time: 17:46:06
(UTC+00:00)

Daily predictions for brighter satellites

Satellite Brightness Start Highest point End
(mag) Time Altitude Azimuth Time Altitude Azimuth Time Altitude Azimuth
BREEZE-M DEB (TANK) 4.5 19:15:51 10° WNW 19:20:04 53° NNE 19:34:56 10° E
SAR-Lupe-4 4.0 19:36:51 10° N 19:40:25 68° WNW 19:43:58 10° SSW
Helios 1A Rocket 3.4 19:36:55 10° S 19:41:01 66° WSW 19:45:09 10° NNW
Resurs 01 Rocket 2.9 19:39:47 10° ESE 19:43:23 25° ENE 19:46:59 10° NNE
Cosmos 1689 Rocket 4.2 19:41:34 10° N 19:44:05 30° WNW 19:46:35 10° SW
SL-08 ROCKET BODY 4.4 19:43:23 10° N 19:49:16 70° E 19:55:05 10° SSE
FALCON 9 DEB 4.1 19:47:25 10° WNW 19:50:11 32° SW 19:52:56 10° SSE
IRS-1A Rocket 4.5 19:44:53 10° SSE 19:50:33 63° ENE 19:56:21 10° N
Ariane Rocket 3.1 19:49:20 10° SSE 19:54:17 62° ENE 19:59:18 10° N
CZ-4 R/B 4.4 19:52:51 10° SW 19:55:02 14° W 19:57:13 10° WNW
FALCON 9 DEB 4.4 19:53:04 10° WNW 19:55:42 27° SW 19:58:18 10° SSE
Cosmos 2084 4.5 19:53:40 10° SSE 19:56:54 22° ESE 20:00:11 10° ENE
BREEZE-M R/B 2.0 19:56:52 10° WSW 19:59:50 73° NNW 20:02:15 10° ENE
CZ-4C R/B 3.9 19:57:15 10° NNW 20:03:37 34° NE 20:10:55 10° ESE
FALCON 9 DEB 4.4 20:05:05 10° WNW 20:07:45 27° SW 20:10:20 10° SSE
Cosmos 1437 Rocket 2.9 20:07:34 10° SSW 20:11:24 75° W 20:15:23 10° N
Cosmos 2082 Rocket 4.3 20:10:55 10° NNE 20:13:39 13° NE 20:16:22 10° ENE
Cosmos 1933 3.4 20:11:23 10° S 20:15:21 60° E 20:19:20 10° NNE
Cosmos 1354 Rocket 4.1 20:10:24 10° S 20:15:29 54° ESE 20:20:36 10° NNE
Cosmos 968 Rocket 4.2 20:11:35 10° SW 20:16:45 58° WNW 20:21:55 10° NNE
Cosmos 1805 Rocket 3.5 20:13:04 10° N 20:17:27 89° WSW 20:21:48 10° S
SPOT 1/Viking Rocket 4.5 20:14:13 14° SE 20:18:02 33° ENE 20:22:38 10° N
IGS 5A 3.8 20:17:51 15° SE 20:21:06 49° ENE 20:25:07 10° N
NOSS 3-3 (A) 4.0 20:15:45 10° SSW 20:21:09 50° ESE 20:27:15 10° NE
NOSS 3-3 (C) 4.0 20:15:52 10° S 20:21:16 49° ESE 20:27:20 10° NE
Meteor 1-20 Rocket 4.2 20:16:21 10° N 20:21:58 72° ENE 20:27:12 11° SSE
Intercosmos 25 Rocket 4.2 20:17:50 10° NNW 20:23:48 67° W 20:27:38 10° S
Cosmos 1633 Rocket 3.7 20:20:13 10° N 20:24:22 39° ENE 20:27:09 18° SE
OBJECT-B 3.0 20:27:38 10° SSW 20:30:19 24° W 20:33:01 10° NW
ARIANE 5 R/B 3.9 20:29:17 17° ESE 20:31:27 26° ENE 20:35:01 10° NNE
SPOT 3 Rocket 3.5 20:27:49 15° SSE 20:32:10 71° ENE 20:37:18 10° N
Cosmos 1782 3.0 20:29:20 14° SSE 20:32:31 49° E 20:36:23 10° NNE
Cosmos 1328 Rocket 4.0 20:29:48 16° SSE 20:32:57 41° E 20:37:06 10° NNE
Resurs 1-3 4.3 20:33:02 10° S 20:37:19 53° W 20:41:38 10° NNW
Cosmos 2278 Rocket 2.9 20:34:03 15° SSE 20:37:51 32° ESE 20:42:48 10° NE
Cosmos 1602 3.7 20:35:39 10° N 20:39:30 66° E 20:41:47 23° SSE
MetOp-B 4.2 20:36:12 18° SSE 20:40:09 65° ENE 20:45:28 10° N
Cosmos 883 Rocket 4.5 20:35:13 10° S 20:41:30 79° E 20:47:52 10° N
Cosmos 1437 3.0 20:41:33 35° ESE 20:41:50 36° E 20:44:30 10° NNE
CZ-2C R/B 3.7 20:38:40 10° NNE 20:43:06 60° ESE 20:46:57 14° S
Cosmos 1745 Rocket 4.3 20:37:13 10° NNW 20:43:21 66° W 20:49:24 10° S
Intercosmos 24 4.5 20:40:32 10° SSW 20:44:16 51° W 20:47:45 10° N
Cosmos 1844 Rocket 4.1 20:39:34 10° SW 20:44:48 41° WNW 20:50:05 10° NNE
Cosmos 1709 Rocket 3.9 20:39:50 10° N 20:45:58 77° E 20:50:44 17° SSE
Terra 3.4 20:49:51 18° E 20:51:38 22° ENE 20:55:15 10° NNE
Cosmos 1666 Rocket 3.5 20:47:29 10° N 20:51:54 85° W 20:54:44 21° S
SPOT 5 4.0 20:50:15 22° ESE 20:52:33 33° ENE 20:57:12 10° N
Meteor 2-17 Rocket 4.5 20:47:31 10° N 20:53:43 87° W 20:58:38 17° S
Cosmos 783 Rocket 4.4 20:49:44 10° NNW 20:55:01 84° ENE 20:58:02 26° SSE
GPS 2-04 Rocket1 4.0 20:53:42 10° SW 20:56:25 23° S 20:56:25 23° S
USA 290 3.7 20:55:00 10° NW 20:57:56 32° WSW 20:59:36 19° SSW
Cosmos 773 Rocket 4.0 20:52:44 10° NNW 20:58:03 71° ENE 21:00:48 29° SSE
Cosmos 1242 Rocket 3.8 20:56:16 10° SSW 20:59:38 39° WNW 21:03:01 10° N
X-37B 0.5 20:56:51 10° WNW 21:00:02 77° SSW 21:00:37 55° SE
USA 245 2.8 21:01:54 41° NNE 21:01:54 41° NNE 21:03:36 10° N
Spot 2 Rocket 3.6 20:59:32 29° SE 21:02:01 60° ENE 21:06:59 10° N
Cosmos 1812 2.9 21:02:05 39° SE 21:03:00 49° E 21:06:45 10° NNE
Cosmos 2315 Rocket 4.1 20:59:13 10° S 21:05:35 83° W 21:12:01 10° N
SL-4 R/B 4.3 21:02:56 10° W 21:05:59 18° SW 21:08:01 14° SSW
ATLAS 5 CENTAUR R/B 2.6 21:00:35 10° NW 21:06:18 65° WSW 21:10:11 25° SSE
SJ 16-02 1.9 21:05:54 35° ESE 21:06:28 36° ESE 21:10:32 10° NE
BREEZE-M DEB (TANK) 3.3 21:02:12 10° WNW 21:09:12 48° SW 21:10:06 37° S
USA 307 4.3 21:07:55 10° NW 21:11:48 32° NNE 21:14:12 19° ENE
ERS-1 Rocket 3.3 21:10:30 33° ESE 21:12:22 49° ENE 21:17:12 10° N
Meteor 1-5 Rocket 4.1 21:12:07 10° N 21:17:29 66° ENE 21:19:34 37° SSE
Cosmos 1666 3.0 21:13:54 10° N 21:17:30 44° ENE 21:17:42 43° E
Resurs 01 Rocket 3.1 21:16:26 14° SSW 21:19:43 33° W 21:23:45 10° NNW
Cosmos 1833 Rocket 2.7 21:15:21 10° NNW 21:21:01 69° ENE 21:23:15 37° SE
DELTA 2 R/B (1) 4.5 21:17:44 10° W 21:22:33 31° SSW 21:23:39 28° S
JB-3 4.1 21:19:15 10° NNE 21:23:09 78° ESE 21:23:58 53° S
Cosmos 2228 Rocket 3.8 21:23:47 34° E 21:23:50 34° E 21:27:52 10° NNE
USA 308 4.0 21:21:27 10° NW 21:25:27 37° NNE 21:27:15 25° ENE
CREW DRAGON DEMO-1 DEB 4.4 21:23:24 10° NW 21:25:38 24° NNE 21:25:38 24° NNE
Cosmos 1151 Rocket 4.3 21:21:39 10° SSW 21:25:44 40° WNW 21:29:54 10° N
Cosmos 1777 Rocket 4.1 21:22:26 10° SSW 21:27:35 75° WNW 21:32:48 10° NNE
BREEZE M DEB (TANK) 2.9 21:37:29 10° WNW 21:40:27 35° N 21:40:27 35° N
Cosmos 1500 4.4 21:43:45 10° NNW 21:47:10 34° W 21:47:59 30° WSW
Cosmos 1515 Rocket 4.4 21:50:22 29° SW 21:52:17 47° WNW 21:56:33 10° N
CZ-4C R/B 3.1 21:45:25 10° NW 21:52:50 74° WSW 21:56:21 38° SSE
Cosmos 1869 Rocket 3.6 21:54:28 10° N 21:58:40 63° ENE 21:58:40 63° ENE
Cosmos 2082 Rocket 2.2 21:53:09 10° NNW 21:58:48 71° ENE 21:59:58 54° SE
Cosmos 990 Rocket 4.2 22:00:06 50° E 22:00:06 50° E 22:05:03 10° NNE
COSMOS 2406 3.5 21:56:40 10° NNW 22:02:13 57° WSW 22:03:39 44° SSW
Cosmos 1544 4.4 22:00:42 10° N 22:03:05 32° NE 22:03:05 32° NE
NOSS 3-4 (A) 3.9 21:57:38 10° NW 22:04:42 79° NE 22:07:31 43° SE
NOSS 3-4 (C) 3.9 21:57:45 10° NW 22:04:49 78° NE 22:07:38 43° SE
USA 305 3.0 22:02:16 10° NW 22:06:30 70° NNE 22:06:30 70° NNE
Meteor 1-27 Rocket 3.7 22:05:25 54° S 22:06:47 81° E 22:12:43 10° NNE
SL-24 DEB 4.0 22:07:10 81° S 22:07:24 90° SW 22:12:02 10° N
ARIANE 5 R/B 3.9 22:06:49 27° WSW 22:07:47 30° W 22:11:37 10° NW
Cosmos 1271 Rocket 3.4 22:08:05 48° W 22:08:27 50° WNW 22:12:21 10° N
Cosmos 2327 Rocket 4.5 22:04:11 10° N 22:10:38 84° E 22:12:18 53° SSE
Cosmos 1707 Rocket 4.2 22:16:19 44° NE 22:16:19 44° NE 22:19:44 10° NNE
ATLAS 2AS CENTAUR R/B 3.1 22:10:58 10° NNW 22:18:15 59° NE 22:20:39 40° ESE
Cosmos 2278 Rocket 3.4 22:16:30 10° SW 22:21:48 40° WNW 22:27:07 10° NNE
Cosmos 2112 Rocket 4.2 22:17:46 10° NNW 22:23:05 60° ENE 22:23:29 58° E
USA 306 3.3 22:21:31 10° NW 22:25:01 59° NW 22:25:01 59° NW
Cosmos 2154 Rocket 4.1 22:19:30 10° NNW 22:25:49 73° W 22:27:20 52° SSW
Terra 2.5 22:28:43 43° WSW 22:29:05 44° W 22:33:39 10° NNW
Cosmos 158 Rocket 4.2 22:24:47 10° NNW 22:29:33 54° WSW 22:29:37 54° WSW
SPOT 5 4.2 22:29:28 30° WSW 22:30:33 32° W 22:35:14 10° NNW
Cosmos 2369 Rocket 3.7 22:32:38 23° ENE 22:32:38 23° ENE 22:35:41 10° NE
Cosmos 1943 Rocket 2.6 22:33:19 47° E 22:33:19 47° E 22:38:02 10° NE
Meteor 1-11 Rocket 4.3 22:28:16 10° NNW 22:34:03 53° W 22:35:19 45° SW
Cosmos 1340 Rocket 3.6 22:34:05 10° NNW 22:37:15 52° NNW 22:37:15 52° NNW
SL-24 R/B - RUBIN 2 4.1 22:35:41 10° NNW 22:41:04 59° NE 22:41:12 59° ENE
Cosmos 962 Rocket 4.3 22:35:24 10° N 22:41:33 88° E 22:42:18 71° SSE
SJ 16-02 3.5 22:42:50 15° W 22:45:08 23° WNW 22:48:40 10° N
Cosmos 1937 Rocket 3.5 22:47:48 70° NE 22:47:48 70° NE 22:52:28 10° NNE
Spot 4 4.2 22:47:43 59° NE 22:47:43 59° NE 22:52:12 10° N
Cosmos 1733 Rocket 3.7 22:45:15 10° N 22:48:36 51° NNE 22:48:36 51° NNE
Cosmos 1680 Rocket 3.6 22:45:16 10° NNW 22:50:28 69° W 22:50:28 69° W
Cosmos 1536 4.3 22:47:42 10° NNW 22:50:40 32° WNW 22:50:40 32° WNW
USA 307 4.3 22:47:47 10° WNW 22:50:17 33° WNW 22:50:17 33° WNW
Cosmos 44 3.5 22:48:59 10° NNW 22:54:21 74° NE 22:54:21 74° NE
Meteor 2-4 Rocket 4.4 22:58:14 42° E 22:58:14 42° E 23:03:08 10° NNE
Cosmos 858 Rocket 4.5 23:02:05 78° NNW 23:02:05 78° NNW 23:07:02 10° NNE
Cosmos 2181 Rocket 3.8 23:02:06 78° SSE 23:02:32 85° E 23:08:41 10° N
Cosmos 1743 4.4 23:01:17 10° NNW 23:03:39 31° NW 23:03:39 31° NW
Cosmos 1818 3.7 22:59:56 10° NNW 23:05:24 64° NE 23:05:31 64° ENE
Cosmos 1975 4.3 23:01:55 10° N 23:04:22 34° NNE 23:04:22 34° NNE
Cosmos 2366 rocket 3.8 23:08:33 10° N 23:14:45 88° E 23:15:06 81° SSE
Cosmos 2297 4.3 23:18:27 46° W 23:19:30 53° WNW 23:25:04 10° NNE
Cosmos 2341 Rocket 4.3 23:13:26 10° NNW 23:19:40 55° W 23:20:23 52° WSW
Cosmos 1238 Rocket 3.9 23:15:53 10° NNW 23:21:57 60° W 23:21:58 60° W
Meteor 1-18 Rocket 4.2 23:22:00 78° WNW 23:22:00 78° WNW 23:27:36 10° N
Cosmos 489 Rocket 4.4 23:28:38 10° NNW 23:34:52 75° WSW 23:34:57 75° WSW
Cosmos 2218 Rocket 4.1 23:29:30 10° NNW 23:35:41 63° W 23:36:03 62° WSW
Cosmos 2082 Rocket 4.2 23:38:48 10° WNW 23:41:48 16° W 23:41:48 16° W
Cosmos 372 Rocket 4.4 23:48:14 54° NW 23:48:14 54° NW 23:52:55 10° NNE
SeaSat 1 3.2 23:48:07 10° NE 23:51:43 43° ENE 23:51:43 43° ENE
Okean 1-7 4.2 23:55:19 40° N 23:55:19 40° N 23:58:09 10° N
